Tracking 20623 objects as of 5-Apr-2020
HD Live streaming from Space Station
objects crossing your sky now

CZ-2F DEB


CZ-2F DEB is no longer on orbit


NORAD ID: 38520
Int'l Code: 2012-032G
Perigee: N/A
Apogee: N/A
Inclination: N/A
Period: N/A
Semi major axis: N/A
RCS: N/A
Launch date: June 16, 2012
Source: People's Republic of China (PRC)
Launch site: Jiuquan Satellite Launch Center, China (JSC)
Decay date: 2012-06-18

Note: This is SATELLITE DEBRIS
aabbcc
Your satellite tracking list
Your tracking list is empty




NASA's NSSDC Master Catalog

Two Line Element Set (TLE):
1 38520U 12032G   12170.05923209  .43020725  80253-5  69045-2 0  9999
2 38520 042.6451 045.2052 0084461 123.5102 237.3925 16.22684745    14
Source of the keplerian elements: AFSPC